Temp
19 20 21 21 23 23 22 21 21 21 21 18 18 20 21 18 20 20 13 15 13 13 14 15 14 15 14 14 15 15 14 14 13 13 13 14 15 14 13 12 12 12 12 13 15 15 15 15 14
19 20 21 20 23 23 23 21 21 21 18 17 17 18 19 19 13 13 13 15 13 13 13 14 14 15 15 15 14 15 15 15 14 14 15 14 15 15 12 11 11 12 12 12 14 14 14 14 14
19 20 21 23 22 23 23 21 22 18 17 18 18 16 17 16 13 13 13 14 13 13 13 14 14 15 15 14 12 13 14 15 15 14 15 14 15 13 12 11 11 12 11 11 13 13 13 13 13
19 19 19 23 22 22 22 22 20 18 16 16 18 18 14 13 13 13 14 13 13 12 13 14 14 15 15 13 13 12 14 15 16 14 13 15 14 15 12 11 11 14 12 12 13 13 13 13 13
19 19 22 21 22 21 21 19 19 20 19 18 17 18 15 13 13 14 14 12 12 12 13 14 14 15 15 13 13 13 15 15 16 15 15 16 15 14 14 12 11 13 13 13 13 13 13 13 12
20 19 21 21 22 21 20 18 19 20 18 16 18 17 15 13 14 14 14 12 12 12 13 14 13 14 15 13 12 13 15 15 15 15 14 14 14 14 14 13 13 13 13 13 13 13 12 12 12
20 21 21 21 21 21 21 17 19 20 19 18 17 18 13 13 14 14 13 14 13 12 13 13 13 14 14 14 12 12 14 15 14 14 14 13 13 13 13 13 13 13 13 13 13 12 12 12 12
18 20 19 20 21 21 19 18 18 19 19 16 15 18 15 13 14 14 14 14 14 14 13 13 13 14 14 14 13 12 13 13 14 14 13 13 13 13 13 13 13 13 13 13 12 12 12 12 12
17 20 20 20 19 21 18 20 16 17 17 15 15 15 14 15 14 14 13 13 13 14 14 13 13 14 14 14 14 13 13 13 13 13 13 13 13 13 13 13 13 13 13 12 12 12 12 12 12
18 18 20 19 19 20 18 20 18 18 17 16 15 15 14 14 14 14 14 14 14 14 15 13 14 14 14 14 14 14 14 14 13 13 13 13 13 13 13 13 13 13 12 12 12 12 12 12 11
13 19 18 17 17 17 18 17 18 19 19 20 18 15 15 14 14 14 13 14 15 15 16 15 14 14 15 14 14 14 14 14 14 13 13 13 13 13 12 12 12 12 12 12 12 12 11 11 11
13 13 15 15 15 16 17 17 18 19 21 19 18 17 16 14 15 15 14 14 13 15 16 16 14 14 15 15 14 14 14 14 13 13 13 13 13 13 12 12 12 12 12 12 11 11 11 11 11
16 15 14 15 15 15 16 17 19 18 18 19 17 17 17 15 15 14 15 14 15 15 16 16 15 15 14 15 15 15 14 14 14 13 13 13 12 12 12 12 12 11 11 11 11 11 11 11 11
15 14 13 14 15 15 17 17 16 19 18 18 18 17 17 16 16 15 15 15 15 16 16 15 15 15 15 14 14 14 14 14 13 13 13 13 12 12 12 12 11 11 11 11 11 11 11 11 11
13 14 14 14 15 15 15 17 17 17 16 16 16 15 15 14 13 17 16 16 16 16 16 15 15 14 15 15 14 13 13 13 13 13 13 12 12 12 12 11 11 11 11 11 11 11 10 11 11
15 15 15 14 15 15 16 20 18 16 16 17 16 15 13 13 16 16 15 16 16 16 16 15 15 15 15 14 14 14 14 13 13 13 12 12 12 11 11 11 11 11 11 10 10 10 10 10 11
13 13 15 17 14 14 16 18 16 14 15 18 17 15 14 13 13 15 16 16 16 16 16 16 15 15 15 14 14 13 13 13 12 12 12 12 11 10 11 11 11 11 11 10 10 10 11 11 10
11 14 14 16 15 14 15 17 18 16 15 17 17 15 15 14 13 15 16 16 15 15 15 15 15 15 15 14 14 13 13 13 12 12 12 11 11 10 10 10 10 11 10 11 10 10 11 11 11
13 15 15 14 15 14 15 17 18 18 14 16 16 16 15 15 15 15 16 15 15 15 15 15 15 15 14 14 13 13 13 13 13 12 12 11 11 10 10 10 10 10 10 11 11 11 11 11 10
13 14 15 15 14 14 15 15 16 17 17 17 17 17 16 15 14 17 16 15 15 15 15 15 14 14 14 14 14 14 14 13 13 12 12 11 11 11 10 11 11 11 11 11 11 11 11 10 10
13 14 14 14 13 13 14 15 16 17 16 16 15 16 16 15 16 15 17 16 16 16 15 15 15 15 14 14 14 13 13 13 12 13 12 11 11 11 11 11 11 11 11 11 11 11 10 10 10
11 12 13 13 14 15 15 16 18 18 18 15 16 15 16 17 18 16 17 17 17 17 16 16 16 15 15 14 14 13 13 13 13 13 13 12 12 11 11 11 11 11 11 11 10 10 10 10 9
11 12 11 12 13 13 13 14 18 16 16 17 16 15 16 18 19 19 19 19 18 17 17 17 16 16 15 15 14 14 13 13 13 13 13 12 12 12 11 11 11 11 10 11 10 10 10 9 9
10 10 10 11 12 12 14 14 17 17 16 17 18 17 18 19 19 20 20 19 19 18 18 17 16 16 15 15 14 14 14 14 14 13 13 13 13 12 12 11 11 11 11 11 10 10 9 9 8
10 10 8 9 10 12 11 13 16 17 16 18 19 18 19 20 20 20 19 19 19 19 19 18 17 16 16 15 15 14 14 14 14 14 14 13 13 12 12 12 11 11 10 10 10 9 8 8 8
10 11 10 10 11 13 8 12 16 15 17 16 15 17 17 18 19 20 20 19 19 19 19 19 18 17 16 16 16 15 15 14 14 14 14 14 13 13 12 12 11 11 10 10 9 8 8 8 8
10 9 11 10 4 10 13 14 15 14 14 14 14 13 15 18 18 19 19 20 19 19 18 18 18 18 17 16 15 15 15 15 14 14 14 13 13 12 12 12 11 11 10 9 8 7 8 8 8
11 12 9 10 10 11 14 13 16 16 17 16 15 14 15 17 18 18 19 19 19 19 19 18 18 18 17 16 16 16 15 15 15 14 14 13 12 12 11 11 11 10 9 8 7 7 8 8 8
10 10 11 12 11 12 12 16 16 16 16 17 16 16 17 17 18 18 18 19 19 19 19 19 18 17 16 15 15 15 15 14 14 13 12 11 11 12 11 11 10 10 9 7 7 7 8 8 8
12 11 12 12 10 11 10 14 14 14 14 14 15 16 17 17 17 16 17 17 18 18 17 18 16 15 15 14 14 14 14 14 14 13 13 11 10 11 11 10 10 9 7 7 7 8 8 8 7
Height
1555 1553 1552 1552 1555 1550 1556 1558 1556 1558 1560 1563 1564 1564 1563 1566 1565 1570 1574 1577 1580 1583 1584 1585 1586 1586 1586 1586 1586 1586 1586 1587 1587 1587 1587 1586 1587 1587 1588 1588 1587 1586 1586 1585 1585 1584 1584 1583 1582
1556 1554 1553 1553 1553 1554 1553 1555 1557 1557 1562 1564 1565 1566 1565 1567 1569 1571 1574 1577 1581 1583 1585 1586 1587 1588 1587 1587 1587 1587 1587 1588 1588 1587 1587 1588 1587 1589 1589 1590 1589 1589 1589 1589 1587 1587 1586 1585 1585
1555 1554 1555 1551 1551 1551 1552 1553 1554 1561 1563 1564 1565 1566 1567 1569 1570 1573 1575 1578 1583 1584 1586 1587 1588 1589 1588 1589 1590 1589 1589 1589 1589 1588 1588 1589 1589 1590 1591 1592 1591 1590 1591 1591 1589 1589 1588 1588 1587
1555 1556 1556 1551 1553 1553 1552 1553 1556 1561 1564 1564 1564 1566 1569 1569 1571 1574 1576 1580 1584 1585 1586 1587 1589 1589 1590 1591 1592 1591 1591 1591 1591 1590 1590 1590 1591 1592 1592 1593 1592 1591 1592 1592 1592 1592 1591 1590 1589
1556 1555 1551 1552 1554 1553 1556 1557 1558 1560 1562 1564 1565 1566 1570 1570 1571 1573 1577 1581 1584 1587 1587 1589 1590 1591 1592 1593 1593 1592 1592 1593 1592 1592 1592 1592 1593 1593 1593 1594 1594 1593 1594 1594 1594 1594 1593 1592 1592
1556 1554 1552 1553 1552 1552 1555 1556 1558 1560 1562 1564 1565 1565 1571 1571 1572 1573 1577 1581 1584 1588 1589 1590 1592 1593 1593 1594 1595 1594 1593 1594 1593 1593 1594 1595 1595 1595 1595 1595 1595 1595 1596 1597 1596 1596 1595 1595 1594
1554 1551 1549 1550 1551 1551 1552 1556 1558 1559 1561 1564 1565 1565 1570 1571 1572 1574 1578 1581 1584 1587 1589 1590 1592 1593 1595 1595 1596 1596 1596 1596 1596 1596 1596 1597 1597 1597 1598 1598 1598 1598 1599 1598 1599 1598 1597 1597 1596
1553 1552 1554 1551 1550 1549 1553 1556 1557 1559 1561 1562 1564 1564 1569 1568 1572 1574 1578 1581 1583 1586 1589 1591 1592 1594 1595 1596 1597 1597 1598 1598 1598 1598 1598 1599 1599 1599 1600 1600 1600 1600 1601 1601 1600 1600 1599 1599 1598
1549 1550 1552 1550 1553 1548 1553 1554 1556 1558 1560 1563 1563 1564 1565 1566 1570 1573 1577 1580 1582 1585 1589 1591 1592 1594 1596 1596 1597 1599 1599 1599 1600 1600 1601 1601 1601 1602 1602 1601 1602 1602 1602 1602 1602 1602 1601 1601 1600
1548 1548 1547 1551 1550 1549 1551 1552 1554 1558 1559 1561 1562 1562 1564 1567 1569 1571 1575 1578 1580 1583 1588 1590 1592 1594 1596 1597 1598 1599 1600 1601 1601 1602 1602 1602 1603 1603 1604 1604 1603 1603 1603 1603 1604 1603 1603 1602 1602
1549 1543 1548 1552 1552 1551 1551 1554 1554 1554 1557 1555 1558 1560 1562 1567 1569 1571 1574 1577 1578 1581 1586 1589 1591 1593 1596 1598 1599 1600 1601 1601 1602 1603 1603 1604 1604 1604 1604 1604 1604 1604 1604 1604 1604 1604 1604 1603 1603
1551 1551 1551 1553 1553 1551 1551 1553 1552 1552 1552 1552 1556 1558 1560 1564 1566 1569 1572 1575 1578 1579 1583 1588 1590 1592 1595 1598 1600 1601 1602 1603 1603 1604 1604 1605 1605 1605 1605 1605 1605 1605 1605 1606 1606 1605 1605 1604 1604
1546 1548 1550 1550 1552 1551 1550 1552 1550 1550 1551 1551 1554 1556 1559 1562 1566 1569 1572 1575 1577 1578 1581 1585 1588 1591 1593 1596 1598 1599 1601 1602 1603 1604 1604 1605 1605 1605 1606 1606 1606 1606 1606 1606 1606 1606 1606 1605 1604
1545 1548 1549 1548 1549 1551 1550 1551 1552 1546 1548 1551 1552 1553 1556 1559 1562 1566 1570 1573 1575 1578 1581 1583 1586 1590 1592 1594 1595 1597 1599 1600 1601 1602 1603 1604 1604 1605 1605 1606 1606 1606 1606 1606 1606 1606 1605 1605 1604
1545 1551 1551 1551 1550 1552 1552 1551 1547 1546 1545 1550 1551 1552 1553 1557 1561 1562 1567 1570 1574 1577 1580 1583 1585 1587 1590 1593 1595 1596 1597 1599 1600 1601 1602 1602 1603 1604 1604 1604 1604 1605 1605 1605 1606 1605 1605 1605 1604
1546 1547 1549 1547 1546 1550 1552 1543 1542 1544 1545 1547 1549 1551 1551 1553 1556 1560 1563 1568 1571 1575 1577 1581 1584 1585 1587 1590 1592 1595 1596 1597 1599 1600 1600 1601 1601 1602 1603 1603 1603 1604 1604 1604 1605 1605 1605 1604 1603
1548 1550 1544 1543 1545 1547 1552 1547 1543 1543 1543 1545 1547 1548 1549 1551 1553 1556 1560 1564 1568 1570 1574 1576 1580 1583 1585 1588 1591 1592 1593 1595 1596 1598 1598 1599 1600 1600 1601 1601 1602 1602 1603 1603 1604 1604 1604 1604 1603
1550 1544 1545 1541 1546 1549 1548 1544 1540 1544 1544 1543 1544 1546 1546 1547 1548 1553 1556 1560 1564 1567 1570 1573 1576 1579 1582 1584 1586 1588 1589 1591 1593 1594 1596 1597 1598 1599 1600 1600 1601 1601 1602 1602 1602 1602 1601 1601 1601
1536 1535 1539 1544 1545 1549 1545 1539 1538 1540 1542 1543 1540 1541 1542 1543 1545 1549 1552 1556 1559 1561 1565 1567 1570 1574 1576 1578 1580 1582 1584 1586 1587 1590 1592 1594 1595 1596 1598 1599 1600 1600 1601 1601 1600 1600 1599 1598 1598
1535 1536 1537 1542 1545 1546 1541 1537 1536 1534 1535 1538 1536 1536 1536 1540 1541 1543 1545 1549 1554 1556 1559 1562 1565 1568 1571 1573 1575 1577 1580 1582 1583 1585 1587 1589 1590 1592 1593 1595 1596 1597 1598 1598 1598 1597 1596 1596 1596
1536 1534 1538 1539 1545 1543 1543 1532 1527 1526 1529 1531 1531 1530 1531 1533 1534 1537 1540 1542 1547 1550 1552 1555 1559 1562 1565 1569 1571 1573 1574 1576 1577 1579 1581 1583 1585 1587 1588 1589 1591 1592 1593 1593 1593 1593 1593 1593 1593
1540 1539 1539 1543 1544 1540 1537 1525 1509 1513 1515 1520 1523 1524 1524 1525 1527 1531 1533 1535 1538 1541 1547 1550 1552 1555 1558 1562 1563 1565 1567 1569 1573 1574 1577 1579 1581 1583 1584 1585 1586 1587 1587 1588 1589 1589 1589 1588 1589
1537 1538 1543 1546 1545 1546 1541 1541 1502 1510 1510 1508 1513 1516 1517 1519 1521 1522 1525 1528 1531 1536 1539 1542 1545 1547 1550 1554 1556 1559 1561 1564 1568 1570 1571 1572 1575 1577 1579 1581 1581 1582 1584 1585 1585 1585 1585 1586 1586
1537 1543 1549 1548 1546 1544 1529 1537 1507 1503 1499 1498 1501 1503 1508 1511 1515 1515 1518 1522 1525 1529 1532 1534 1538 1539 1544 1546 1549 1550 1554 1558 1560 1562 1564 1565 1567 1570 1572 1574 1576 1577 1578 1579 1580 1581 1582 1582 1583
1535 1541 1558 1562 1558 1536 1537 1532 1497 1491 1493 1492 1491 1491 1498 1503 1505 1508 1511 1513 1518 1520 1522 1526 1529 1532 1535 1539 1541 1544 1546 1549 1553 1555 1557 1559 1560 1562 1566 1567 1570 1572 1573 1573 1573 1574 1576 1578 1578
1534 1533 1542 1545 1545 1527 1547 1520 1491 1487 1486 1490 1489 1490 1492 1495 1498 1501 1503 1507 1510 1513 1514 1517 1520 1523 1527 1531 1534 1537 1539 1541 1544 1548 1550 1553 1555 1557 1558 1559 1561 1564 1568 1570 1571 1571 1570 1571 1573
1534 1538 1536 1543 1564 1542 1516 1501 1490 1486 1483 1486 1488 1490 1489 1491 1494 1496 1497 1499 1502 1505 1507 1508 1511 1515 1518 1522 1526 1527 1530 1533 1537 1541 1543 1544 1547 1552 1553 1553 1554 1558 1560 1563 1566 1568 1568 1567 1568
1520 1526 1539 1538 1540 1534 1507 1510 1490 1484 1480 1483 1485 1485 1487 1487 1489 1491 1491 1492 1493 1496 1499 1501 1504 1506 1510 1513 1515 1518 1522 1525 1528 1531 1534 1536 1539 1542 1546 1547 1549 1552 1555 1556 1558 1561 1562 1564 1564
1520 1524 1523 1523 1526 1520 1516 1491 1480 1480 1478 1480 1483 1483 1483 1484 1483 1484 1485 1484 1485 1487 1488 1490 1493 1495 1499 1504 1507 1510 1513 1515 1519 1522 1526 1529 1533 1534 1537 1539 1542 1545 1547 1550 1553 1555 1557 1558 1559
1505 1506 1511 1511 1523 1517 1522 1500 1482 1481 1481 1482 1484 1483 1480 1481 1479 1478 1478 1478 1477 1478 1480 1481 1484 1486 1491 1496 1500 1502 1505 1506 1509 1511 1515 1520 1525 1526 1530 1532 1535 1538 1540 1544 1548 1551 1553 1554 1555
Wind_Speed
6 6 5 2 3 3 4 4 0 6 6 2 6 2 2 4 2 3 15 21 17 16 15 12 9 8 8 8 10 11 10 11 12 9 9 7 8 10 13 16 12 17 17 15 15 16 15 15 14
6 6 3 1 3 4 4 4 6 5 5 9 8 5 3 3 3 9 19 22 18 16 14 13 10 8 8 9 11 11 10 11 10 9 9 10 10 12 17 15 15 18 18 16 16 17 17 17 16
5 4 2 1 1 3 1 6 8 8 10 6 5 3 3 3 3 18 16 24 18 16 15 12 9 9 9 13 12 11 11 11 12 14 13 15 13 16 18 16 14 16 18 16 16 17 17 17 17
4 2 1 3 1 1 2 5 7 14 2 3 5 6 4 3 13 11 25 21 18 16 14 12 10 9 11 17 12 11 10 11 11 15 15 14 14 14 16 16 14 16 17 15 15 15 15 16 17
5 3 3 2 3 1 2 1 13 11 7 7 5 5 3 10 10 18 25 20 18 15 15 13 10 8 13 16 13 10 12 12 12 14 14 14 14 14 14 15 14 14 16 15 14 14 14 15 15
5 2 4 8 5 3 2 6 12 7 6 7 5 9 7 10 14 23 24 19 17 15 16 15 11 9 11 15 13 11 11 11 12 13 14 14 14 13 13 13 13 13 13 13 12 13 13 14 14
4 4 6 4 5 2 3 11 13 8 7 6 8 8 5 12 17 23 23 22 18 15 16 15 13 11 11 14 13 10 10 11 12 14 15 13 12 12 13 12 11 11 11 11 11 12 12 13 13
5 3 5 5 6 4 7 11 7 7 6 6 8 4 6 18 22 25 24 22 19 18 17 17 15 13 13 13 12 12 10 10 13 15 14 13 13 12 11 10 10 10 10 9 10 11 11 12 12
9 6 8 8 6 4 12 10 7 6 7 5 7 3 5 24 26 26 25 23 21 19 19 17 16 14 13 14 13 12 11 10 11 12 11 10 10 10 10 9 8 7 7 9 9 9 10 10 10
3 7 10 1 2 1 11 12 14 8 9 6 7 7 14 25 29 29 29 26 24 22 21 20 17 15 13 13 12 12 11 10 10 10 10 10 9 9 8 8 7 6 6 7 8 8 8 9 9
2 10 4 2 3 1 7 7 9 10 8 13 15 15 22 28 29 29 27 26 24 23 22 22 21 17 14 13 13 13 12 11 10 10 9 8 8 8 7 7 7 6 6 5 5 6 6 6 7
6 5 3 1 3 4 5 6 7 15 4 7 10 16 25 31 31 30 29 25 23 25 23 22 21 19 16 13 12 11 10 10 10 9 8 7 6 5 5 5 5 4 4 4 4 4 3 4 5
9 13 8 5 6 2 5 6 6 14 8 5 14 18 25 30 31 27 27 25 23 24 25 24 22 20 19 18 15 13 12 11 8 8 7 7 6 5 4 3 3 2 2 2 2 2 2 2 3
5 8 4 2 7 1 2 3 5 12 16 9 15 18 22 29 31 29 28 27 26 24 25 25 23 21 20 20 19 17 15 13 12 10 9 7 6 5 4 3 2 1 1 1 1 0 0 1 2
6 6 4 5 3 3 1 4 9 5 14 13 15 17 21 25 26 31 30 29 26 24 23 23 24 23 20 18 17 16 15 13 13 12 10 9 8 7 6 5 4 2 2 2 2 1 1 1 3
6 1 7 3 6 3 1 10 3 10 11 17 16 16 19 24 28 31 30 30 27 25 25 23 22 22 22 21 20 18 16 15 14 14 12 11 10 10 9 7 6 5 4 2 1 2 4 4 7
1 5 14 9 2 4 1 8 3 6 11 14 15 17 19 21 25 28 32 31 30 28 27 26 24 23 21 19 19 19 18 17 16 15 14 12 12 11 10 11 9 7 5 4 5 5 7 9 11
7 7 4 12 3 3 8 13 14 7 10 15 14 16 19 21 24 27 32 32 31 29 28 27 26 25 23 22 22 21 21 20 19 17 15 13 12 11 9 7 8 7 8 8 7 8 9 10 13
11 10 12 4 3 1 8 17 20 22 10 16 17 18 20 23 21 25 31 33 33 32 30 30 29 27 27 27 27 26 25 23 22 20 16 18 15 13 12 9 10 10 9 11 11 11 11 12 14
15 13 12 5 5 5 8 17 15 22 16 19 20 20 22 20 22 28 31 33 35 34 34 32 32 30 30 28 27 27 25 25 23 20 19 20 18 17 17 14 13 13 13 14 14 14 13 13 15
7 14 10 4 3 3 4 17 19 15 21 21 20 22 20 24 27 27 32 33 34 37 37 37 35 34 32 31 29 29 28 28 26 23 22 23 19 19 18 18 18 17 16 18 18 16 15 15 16
7 6 9 7 3 4 9 8 12 14 21 16 21 24 27 27 30 27 32 35 37 38 37 39 38 37 36 34 35 34 33 32 27 23 23 20 20 21 20 20 19 19 21 20 19 17 16 16 16
4 8 5 1 2 2 7 6 8 3 14 19 20 24 29 33 32 34 35 36 35 34 36 38 39 40 39 39 38 37 36 34 29 27 24 24 23 23 19 23 22 23 22 22 20 16 19 17 16
13 8 6 3 1 7 12 11 10 10 14 17 22 25 30 36 37 34 34 35 36 35 35 36 38 40 40 41 41 40 38 37 34 34 31 27 26 25 21 22 23 26 24 23 20 20 18 17 17
5 12 3 2 4 7 1 11 15 10 11 17 20 24 30 31 38 37 36 36 36 37 38 39 38 40 41 42 41 41 40 39 37 36 34 33 31 29 25 22 22 25 24 22 21 20 17 17 18
15 10 4 6 5 3 2 10 4 11 19 16 15 14 16 23 30 36 34 34 38 41 39 40 41 42 42 42 42 42 41 41 39 37 35 35 34 30 28 22 19 21 23 22 21 19 19 17 16
8 9 4 1 2 2 5 6 10 8 9 13 18 17 20 18 23 23 26 33 36 39 41 40 41 41 43 42 44 44 44 42 40 38 36 36 36 34 30 24 22 22 22 23 22 22 21 18 16
12 15 5 4 5 5 4 6 9 3 11 9 10 13 18 20 21 22 22 25 27 32 35 37 38 39 40 41 42 40 40 39 39 38 38 37 36 35 33 29 25 23 24 24 23 23 20 18 16
10 11 6 5 4 3 3 4 4 7 5 8 9 10 9 13 17 20 20 21 23 27 29 30 38 42 42 41 40 38 37 36 36 37 37 36 34 37 38 33 28 26 25 26 24 23 21 19 16
17 13 16 6 7 5 1 7 3 3 3 4 5 7 9 12 14 15 17 19 23 25 26 29 34 40 40 39 37 36 36 38 38 39 38 36 35 39 38 36 29 24 26 24 25 23 21 19 17
Wind_Direction
339 345 359 351 223 241 145 149 162 151 160 129 138 178 113 42 354 32 148 161 155 150 149 147 151 143 141 137 131 139 151 157 150 139 137 132 114 108 119 109 101 97 96 90 86 82 79 79 80
324 345 353 209 243 227 139 147 176 150 129 129 122 118 122 90 78 134 148 159 156 151 147 151 147 141 138 128 114 121 141 157 156 143 127 117 114 112 105 105 97 97 95 88 89 83 76 75 74
317 338 269 223 241 262 142 171 146 130 136 153 138 71 105 122 130 143 159 156 154 152 149 151 140 133 126 118 118 114 115 123 131 117 123 116 112 114 108 105 101 104 99 95 87 81 78 73 75
312 299 77 244 178 104 17 147 154 148 145 148 143 118 97 163 145 159 158 152 155 152 150 149 143 131 129 126 134 130 123 123 122 122 118 115 112 111 118 115 110 97 102 97 84 80 78 76 75
289 251 205 181 194 159 230 205 173 165 147 156 166 134 103 141 154 157 158 156 160 156 155 152 145 140 138 135 138 134 115 123 126 121 120 117 116 111 113 113 107 98 100 92 86 82 78 74 75
237 250 217 218 208 172 212 180 171 179 153 151 158 135 136 170 162 161 165 161 165 160 157 156 149 146 145 149 149 138 114 114 118 119 115 114 107 108 110 109 107 101 97 91 86 85 85 80 76
248 227 220 202 207 205 174 156 177 178 157 179 148 150 152 169 162 163 165 169 171 163 160 162 154 153 147 150 154 149 129 122 125 117 113 110 110 108 105 106 105 102 98 92 88 89 83 80 78
186 236 179 216 208 192 151 164 172 181 167 156 168 176 172 180 166 167 171 173 175 170 167 169 161 158 158 147 151 153 143 122 118 119 119 116 112 109 107 108 107 103 97 95 90 87 86 79 77
165 210 214 217 189 161 162 176 158 177 141 166 183 150 172 169 168 171 176 179 178 176 176 173 168 166 164 153 150 149 148 140 128 123 119 114 111 112 113 112 109 109 104 93 88 86 85 79 73
173 215 208 194 194 158 178 197 158 168 162 187 175 183 168 172 174 179 182 183 180 174 182 179 176 174 169 161 158 155 149 144 138 132 128 127 124 116 111 116 116 109 97 94 91 90 86 77 68
63 226 146 129 185 179 183 206 179 175 196 202 196 178 172 179 181 185 187 188 180 178 185 185 180 179 179 173 172 164 161 154 149 143 140 137 132 130 126 117 110 107 115 114 94 87 88 75 61
126 214 143 30 306 159 171 179 199 206 216 193 182 193 178 186 189 190 193 190 186 183 186 191 185 184 183 183 180 175 173 169 162 154 149 143 138 137 130 122 117 115 115 116 112 102 84 60 51
198 171 147 117 9 197 164 208 212 219 214 184 182 191 190 193 196 195 198 196 194 190 187 192 191 189 188 185 187 186 186 183 178 174 172 170 167 160 154 147 135 132 127 132 121 105 73 57 55
154 154 153 128 353 24 194 194 203 227 204 196 188 193 196 201 200 199 201 201 201 197 196 193 195 197 198 196 191 192 194 195 193 195 196 196 194 196 199 199 198 192 191 171 159 247 360 64 47
103 179 205 184 126 64 323 193 226 220 193 197 193 193 197 201 203 206 202 202 202 201 202 204 200 199 202 207 210 204 202 206 209 212 213 212 216 222 225 227 225 211 143 112 112 79 65 27 338
206 237 213 139 135 83 276 238 238 210 192 204 202 200 200 203 210 210 205 205 203 205 205 206 211 209 205 205 207 212 215 216 219 222 224 226 230 232 230 231 230 224 212 167 122 329 325 315 317
187 189 219 218 74 126 179 283 8 215 208 223 213 206 207 209 213 213 209 207 208 208 208 210 210 215 216 218 219 218 221 225 227 228 232 237 242 250 246 234 230 220 202 231 259 277 292 299 309
156 198 208 220 154 180 220 247 273 265 239 235 224 219 216 212 216 213 210 209 211 213 213 215 217 217 217 219 222 224 226 226 229 231 232 238 246 250 258 255 221 212 234 250 262 284 289 295 300
160 189 214 187 191 186 241 250 258 270 254 247 233 223 221 221 216 214 214 213 214 215 216 217 218 218 220 221 222 225 227 228 232 234 235 239 243 251 253 256 247 232 245 263 270 277 284 288 297
166 181 210 217 162 205 252 263 256 260 251 250 243 233 227 222 219 216 213 215 219 219 218 219 221 221 224 226 228 231 236 236 240 239 242 243 243 247 245 248 251 251 257 263 272 273 279 286 295
178 197 180 187 187 216 288 275 253 247 239 252 244 242 237 224 221 219 217 217 220 223 222 222 223 225 226 228 231 231 233 235 234 235 233 241 241 242 243 245 247 253 253 260 264 272 275 283 283
157 146 121 108 186 238 198 272 237 235 231 217 243 236 238 232 230 224 222 221 222 223 226 228 227 228 230 229 232 234 235 236 236 241 246 246 235 250 242 250 246 251 253 256 260 262 272 273 270
129 142 140 192 233 292 207 256 259 240 236 229 226 238 236 238 233 230 229 227 228 228 229 230 230 230 231 232 233 235 238 239 243 241 240 240 244 246 254 249 248 248 256 259 255 265 274 262 261
141 99 46 53 345 256 226 224 243 228 225 229 229 224 241 236 239 235 234 232 231 231 232 233 233 233 232 233 234 233 237 240 241 244 241 236 239 246 246 253 249 248 254 256 260 270 263 255 253
112 136 102 178 199 244 72 220 246 248 240 232 229 224 227 237 235 239 238 234 231 231 233 234 233 234 233 234 234 236 237 240 244 246 241 238 239 237 245 249 250 254 255 253 259 260 247 245 249
168 171 150 188 201 243 142 233 251 253 240 245 246 240 229 236 239 240 241 241 238 236 235 236 236 236 234 235 236 238 239 241 243 244 242 238 242 241 243 240 243 253 253 253 258 243 237 245 235
166 204 122 57 113 273 229 277 254 269 270 261 259 266 252 247 245 245 244 244 245 244 242 240 240 238 236 236 237 240 241 241 244 243 241 239 238 239 235 238 242 248 247 251 247 240 243 228 221
186 156 169 204 208 237 239 271 253 264 242 240 249 247 253 251 258 258 250 251 251 251 250 247 245 241 237 234 235 238 240 241 242 241 241 240 238 235 232 236 236 241 245 242 240 236 222 219 219
158 181 202 179 220 242 282 259 242 278 269 257 269 260 268 271 264 259 252 248 249 250 247 246 240 235 232 232 234 235 237 239 241 242 243 243 239 233 228 231 228 232 239 238 232 218 216 217 219
205 198 184 195 185 230 48 263 232 165 230 268 266 309 313 313 294 282 268 253 247 243 242 245 240 233 229 231 233 235 236 239 241 242 242 237 233 231 234 222 221 234 231 229 218 216 216 217 221